Date,TemperatureHighF,TemperatureAvgF,TemperatureLowF,DewpointHighF,DewpointAvgF,DewpointLowF,HumidityHigh,HumidityAvg,HumidityLow,PressureMaxIn,PressureMinIn,WindSpeedMaxMPH,WindSpeedAvgMPH,GustSpeedMaxMPH,PrecipitationSumIn
2013-1-1,30.1,20.7,12.3,15.0,11.6,0.0,89,70,40,30.32,30.20,13,3,18,0.00
2013-1-2,35.8,24.2,15.1,7.0,1.4,-2.0,60,39,20,30.44,30.23,15,6,19,0.00
2013-1-3,36.9,22.3,13.5,3.0,-1.5,-5.0,59,38,18,30.48,30.32,14,6,16,0.00
2013-1-4,48.1,29.6,15.6,6.0,-1.1,-7.0,40,28,14,30.38,30.08,13,4,18,0.00
2013-1-5,42.9,31.4,22.4,11.0,5.8,1.0,55,35,21,30.39,30.08,13,5,18,0.00
2013-1-6,47.0,34.0,19.7,13.0,6.4,0.0,54,33,15,30.36,29.98,14,4,17,0.00
2013-1-7,50.5,39.3,28.6,7.0,3.2,-1.0,38,23,15,29.99,29.81,23,7,23,0.00
2013-1-8,56.9,41.9,30.3,12.0,6.1,-3.0,43,24,15,30.20,29.77,23,7,24,0.00
2013-1-9,52.4,35.7,22.3,16.0,12.2,10.0,63,40,19,30.38,30.12,12,4,16,0.00
2013-1-10,44.7,32.8,19.0,17.0,11.9,6.0,67,43,28,30.11,29.54,10,2,15,0.00
2013-1-11,44.4,33.2,22.9,21.0,2.4,-13.0,51,29,15,29.79,29.26,41,14,46,0.00
2013-1-12,22.4,16.3,9.2,4.0,-3.9,-10.0,58,42,23,30.20,29.79,18,7,22,0.00
2013-1-13,18.1,10.4,0.0,6.0,-1.7,-9.0,79,59,40,30.37,30.20,9,3,14,0.00
2013-1-14,20.5,13.5,7.8,8.0,5.6,1.0,83,72,50,30.37,30.21,9,2,12,0.00
2013-1-15,33.7,21.0,7.6,8.0,-2.4,-9.0,72,39,21,30.39,30.27,15,6,18,0.00
2013-1-16,52.1,37.6,27.6,17.0,13.1,8.0,58,38,24,30.40,30.20,15,6,20,0.00
2013-1-17,46.6,34.0,24.9,17.0,15.0,12.0,61,47,31,30.48,30.27,9,3,11,0.00
2013-1-18,59.0,45.1,32.5,15.0,5.1,-4.0,43,23,8,30.27,30.00,31,12,31,0.00
2013-1-19,61.2,46.0,35.5,4.0,0.1,-11.0,25,16,5,30.16,30.02,24,10,27,0.00
2013-1-20,54.1,41.9,25.2,9.0,-0.8,-10.0,49,19,8,30.23,29.98,20,7,25,0.00
2013-1-21,57.7,35.3,13.7,14.0,9.0,0.0,74,39,13,30.24,30.10,19,5,26,0.00
2013-1-22,67.6,51.4,38.6,-1.0,-26.8,-99.9,16,8,1,30.15,29.92,23,10,32,0.00
2013-1-23,71.4,53.3,39.4,-1.0,-32.4,-99.9,16,6,1,30.07,29.92,15,8,20,0.00
2013-1-24,65.9,48.3,23.8,24.0,12.6,-2.0,40,25,9,30.04,29.79,30,9,40,0.00
2013-1-25,52.0,42.9,33.1,24.0,20.9,17.0,57,42,30,30.07,29.92,10,3,13,0.00
2013-1-26,58.6,47.2,29.8,29.0,25.1,16.0,67,44,28,29.99,29.59,9,3,13,0.00
2013-1-27,61.6,46.3,29.8,31.0,23.5,18.0,83,47,20,29.65,29.53,18,5,26,0.00
2013-1-28,55.4,42.3,28.9,31.0,23.0,16.0,79,49,27,29.63,29.38,37,8,37,0.00
2013-1-29,28.9,24.7,20.9,25.0,20.8,15.0,91,85,72,30.03,29.56,13,4,15,0.00
2013-1-30,44.5,30.0,13.6,15.0,6.3,0.0,86,40,21,30.09,29.91,37,12,46,0.00
2013-1-31,52.3,39.8,26.6,26.0,13.5,6.0,70,38,16,30.09,29.96,26,9,37,0.00
2013-2-1,54.6,42.0,27.3,19.0,10.6,6.0,68,30,14,30.14,29.93,32,11,35,0.00
2013-2-2,50.7,36.5,20.4,19.0,13.4,7.0,57,40,25,30.30,30.14,12,4,14,0.00
2013-2-3,55.3,39.4,24.8,20.0,12.1,2.0,57,36,15,30.29,29.83,13,4,18,0.00
2013-2-4,55.4,44.0,26.3,11.0,5.6,0.0,40,22,11,29.96,29.75,18,6,25,0.00
2013-2-5,54.8,42.8,26.8,14.0,9.6,3.0,45,27,18,29.96,29.81,14,5,17,0.00
2013-2-6,61.2,47.4,32.6,33.0,14.8,3.0,78,31,11,29.89,29.62,22,10,28,0.00
2013-2-7,47.1,36.9,28.5,30.0,19.8,-99.9,83,57,37,30.09,29.89,13,-16,23,0.00
2013-2-8,56.3,38.2,20.7,20.0,15.8,10.0,75,45,16,30.07,29.68,15,4,24,0.00
2013-2-9,51.6,37.6,24.5,25.0,13.8,-2.0,72,43,11,29.67,29.32,26,6,43,0.00
2013-2-10,37.9,31.4,22.0,24.0,11.0,-3.0,91,48,22,30.07,29.48,19,9,24,0.00
2013-2-11,26.2,20.8,15.3,22.0,17.4,11.0,90,86,80,30.18,30.08,11,4,15,0.02
2013-2-12,38.2,24.8,15.3,13.0,9.4,3.0,80,55,23,30.24,30.12,15,6,18,0.00
2013-2-13,50.4,38.1,24.4,22.0,12.8,8.0,51,36,23,30.14,29.92,21,9,26,0.00
2013-2-14,42.3,32.1,25.6,24.0,16.3,13.0,69,53,36,30.34,29.97,21,6,24,0.00
2013-2-15,45.6,29.5,17.5,19.0,13.3,-2.0,82,57,14,30.41,30.27,22,6,29,0.00
2013-2-16,58.4,44.1,23.9,16.0,9.0,6.0,70,27,13,30.36,29.92,26,12,31,0.00
2013-2-17,60.5,47.4,35.0,12.0,-1.0,-23.0,38,16,3,29.92,29.44,22,9,32,0.00
2013-2-18,46.1,34.8,23.3,21.0,6.8,-12.0,76,38,10,30.11,29.53,26,8,29,0.00
2013-2-19,37.1,27.5,17.1,14.0,10.6,6.0,66,50,35,30.13,29.83,11,2,13,0.00
2013-2-20,37.7,29.4,23.1,29.0,19.6,10.0,93,69,45,29.83,29.60,11,2,16,0.00
2013-2-21,29.8,26.5,21.9,28.0,22.0,18.0,93,83,70,29.95,29.58,17,6,22,0.04
2013-2-22,30.9,24.1,15.0,24.0,19.1,12.0,88,81,68,30.07,29.93,9,2,11,0.02
2013-2-23,51.8,37.4,24.3,22.0,14.2,5.0,76,41,23,30.01,29.55,24,10,30,0.00
2013-2-24,38.8,30.5,22.5,27.0,22.4,18.0,89,73,48,30.07,29.54,22,8,29,0.00
2013-2-25,38.0,26.5,17.3,17.0,13.6,8.0,87,60,34,30.15,29.93,14,4,16,0.00
2013-2-26,31.7,25.6,17.5,26.0,19.4,12.0,89,78,58,30.19,29.84,11,3,15,0.00
2013-2-27,39.1,29.1,21.1,17.0,10.2,5.0,65,47,26,30.34,30.19,15,8,19,0.00
2013-2-28,47.8,34.7,21.8,11.0,4.3,-3.0,59,30,13,30.36,30.16,19,8,25,0.00
2013-3-1,49.0,38.1,28.0,19.0,14.5,11.0,59,39,27,30.34,30.18,15,6,19,0.00
2013-3-2,65.7,49.1,35.1,23.0,18.8,13.0,49,33,13,30.31,29.95,19,7,23,0.00
2013-3-3,64.8,50.9,33.2,24.0,19.3,11.0,56,32,13,29.94,29.50,33,10,35,0.00
2013-3-4,49.9,38.5,23.6,29.0,24.4,19.0,90,60,39,30.20,29.50,22,11,39,0.00
2013-3-5,39.1,27.1,13.6,27.0,20.6,10.0,89,77,57,30.38,30.20,11,3,12,0.00
2013-3-6,65.2,41.0,23.2,33.0,23.9,16.0,90,57,15,30.25,29.80,13,3,19,0.00
2013-3-7,69.0,50.4,32.9,28.0,12.9,-5.0,59,28,5,29.85,29.70,12,3,15,0.00
2013-3-8,57.4,48.3,34.7,27.0,20.1,13.0,47,34,23,29.78,29.44,14,4,18,0.00
2013-3-9,44.7,36.1,31.5,34.0,28.3,20.0,91,74,47,30.00,29.39,17,4,20,0.12
2013-3-10,43.8,34.4,26.0,24.0,14.5,10.0,73,45,26,30.12,30.01,14,7,20,0.00
2013-3-11,60.9,46.2,33.2,27.0,15.0,9.0,77,32,15,30.08,29.74,29,11,37,0.00
2013-3-12,37.4,34.1,30.1,30.0,27.4,25.0,88,77,66,30.30,30.01,15,3,18,0.00
2013-3-13,68.6,46.6,24.1,24.0,20.9,16.0,87,45,14,30.31,30.11,15,5,22,0.00
2013-3-14,73.2,57.2,44.7,23.0,17.6,11.0,39,23,9,30.16,29.91,15,7,19,0.00
2013-3-15,74.4,62.7,49.1,19.0,12.9,1.0,29,16,6,29.96,29.59,32,13,41,0.00
2013-3-16,58.9,48.4,42.0,38.0,25.7,13.0,76,44,17,29.80,29.60,17,5,26,0.01
2013-3-17,60.2,43.9,27.7,34.0,23.4,9.0,89,53,14,29.72,29.41,33,10,52,0.00
2013-3-18,52.8,44.5,28.7,20.0,7.2,1.0,48,24,12,29.86,29.70,33,12,45,0.00
2013-3-19,49.0,42.9,32.3,12.0,7.7,3.0,33,24,16,30.18,29.81,22,8,26,0.00
2013-3-20,54.6,38.5,20.3,23.0,12.8,6.0,61,37,22,30.27,29.70,26,4,26,0.00
2013-3-21,60.3,49.9,34.2,30.0,21.5,10.0,80,36,17,29.67,29.34,31,14,43,0.00
2013-3-22,48.9,38.3,32.3,30.0,25.0,19.0,87,62,36,29.74,29.51,22,6,27,0.00
2013-3-23,34.2,24.1,19.1,25.0,18.9,12.0,91,81,56,30.30,29.70,24,12,26,0.00
2013-3-24,35.7,21.1,11.7,21.0,11.4,3.0,90,70,28,30.36,30.14,17,5,23,0.00
2013-3-25,32.0,20.8,6.9,17.0,12.3,3.0,89,72,39,30.44,30.36,13,4,15,0.02
2013-3-26,52.8,32.5,16.8,33.0,21.8,12.0,86,67,39,30.42,29.95,12,3,14,0.00
2013-3-27,56.6,44.4,29.7,31.0,27.1,23.0,83,54,30,30.04,29.92,14,4,19,0.00
2013-3-28,66.3,49.3,35.6,32.0,26.6,19.0,70,45,17,30.04,29.85,20,4,25,0.00
2013-3-29,68.3,54.7,39.8,30.0,24.5,17.0,58,36,14,29.99,29.80,18,5,24,0.00
2013-3-30,70.5,55.0,44.1,34.0,24.8,15.0,61,35,12,29.94,29.70,20,8,26,0.00
2013-3-31,73.1,56.0,41.8,34.0,20.0,-2.0,69,36,5,30.00,29.64,15,5,23,0.00
2013-4-1,51.7,44.3,33.9,29.0,24.8,16.0,76,48,26,30.03,29.79,21,9,23,0.00
2013-4-2,38.4,35.0,32.9,32.0,29.2,28.0,91,79,69,30.14,30.01,13,4,14,0.01
2013-4-3,53.8,41.4,32.9,35.0,31.8,29.0,94,72,43,30.18,30.03,11,2,16,0.00
2013-4-4,72.1,54.8,34.9,30.0,21.8,12.0,76,34,10,30.12,29.82,17,5,22,0.00
2013-4-5,75.5,59.4,46.9,32.0,19.0,1.0,41,24,6,29.85,29.43,21,7,30,0.00
2013-4-6,66.1,56.1,44.0,32.0,27.3,23.0,52,35,21,29.69,29.54,18,7,27,0.00
2013-4-7,67.7,56.6,41.2,31.0,22.2,13.0,61,30,13,29.64,29.43,28,9,39,0.00
2013-4-8,71.6,55.2,36.7,29.0,21.4,9.0,55,30,9,29.50,29.09,32,7,40,0.00
2013-4-9,46.9,28.3,15.9,29.0,16.1,6.0,80,61,43,30.13,29.28,35,14,43,0.00
2013-4-10,33.9,24.1,13.4,16.0,9.4,5.0,72,55,37,30.25,30.06,16,6,31,0.00
2013-4-11,60.7,42.8,18.7,30.0,19.0,9.0,67,43,19,30.05,29.68,28,9,35,0.00
2013-4-12,59.5,46.8,33.2,33.0,28.2,21.0,78,52,23,29.90,29.68,16,5,25,0.00
2013-4-13,71.3,53.1,29.6,34.0,21.9,7.0,89,44,9,29.89,29.18,24,7,31,0.00
2013-4-14,62.9,51.6,41.3,38.0,22.4,5.0,84,38,15,29.57,29.18,37,17,40,0.08
2013-4-15,62.3,44.7,33.3,24.0,15.5,2.0,67,34,17,29.88,29.39,23,10,29,0.00
2013-4-16,47.9,37.7,32.3,28.0,22.3,17.0,67,55,41,29.89,29.69,22,11,26,0.00
2013-4-17,37.3,29.9,23.4,30.0,27.0,20.0,94,89,67,30.08,29.79,22,9,26,0.04
2013-4-18,34.2,26.2,20.2,25.0,20.5,16.0,91,79,55,30.30,30.09,12,5,17,0.11
2013-4-19,55.0,41.7,27.7,28.0,17.4,12.0,56,39,25,30.30,29.88,19,6,25,0.00
2013-4-20,59.6,46.9,34.1,34.0,26.1,19.0,67,47,21,29.90,29.72,18,5,43,0.00
2013-4-21,64.8,53.0,40.4,34.0,24.1,11.0,69,38,12,29.95,29.74,20,7,23,0.00
2013-4-22,67.4,45.1,26.2,30.0,25.1,17.0,88,50,15,30.12,29.61,33,11,39,0.00
2013-4-23,28.5,25.2,22.3,23.0,20.7,18.0,91,83,67,30.36,30.10,14,6,17,0.01
2013-4-24,52.8,39.1,23.5,27.0,21.6,17.0,85,53,25,30.36,30.16,15,3,22,0.00
2013-4-25,67.3,51.5,35.0,32.0,26.3,22.0,65,41,20,30.19,29.70,16,4,29,0.00
2013-4-26,67.7,58.5,50.6,33.0,23.9,16.0,48,28,15,30.02,29.77,18,6,33,0.00
2013-4-27,74.5,60.1,45.9,31.0,18.5,-1.0,52,26,5,30.02,29.76,20,8,24,0.00
2013-4-28,80.4,65.0,49.7,20.0,15.9,9.0,28,17,7,29.84,29.51,18,7,23,0.00
2013-4-29,82.1,66.5,47.1,32.0,21.0,8.0,48,21,6,29.61,29.32,28,7,31,0.00
2013-4-30,74.6,63.9,52.2,35.0,26.6,17.0,48,25,15,29.58,29.29,24,8,28,0.00
2013-5-1,53.7,37.1,27.1,35.0,30.7,25.0,93,80,47,30.55,29.59,21,12,25,0.05
2013-5-2,45.1,34.0,25.6,28.0,24.1,15.0,93,71,38,30.75,30.47,13,3,17,0.03
2013-5-3,63.7,48.9,33.2,27.0,20.8,11.0,77,39,15,30.47,29.92,20,7,22,0.00
2013-5-4,61.7,49.6,35.1,27.0,23.3,17.0,66,39,21,30.09,29.89,15,6,30,0.00
2013-5-5,52.4,44.9,36.2,26.0,21.2,15.0,63,41,26,30.10,29.98,7,2,12,0.00
2013-5-6,64.3,51.4,38.7,42.0,30.7,23.0,67,47,27,30.06,29.75,15,4,27,0.00
2013-5-7,71.5,58.4,48.0,39.0,32.5,22.0,61,41,16,29.78,29.61,22,10,35,0.01
2013-5-8,57.1,51.5,46.2,43.0,38.3,33.0,80,62,44,29.89,29.70,18,6,23,0.07
2013-5-9,50.3,46.2,43.2,42.0,39.8,38.0,89,79,68,30.11,29.88,16,5,18,0.48
2013-5-10,62.7,52.4,43.0,41.0,37.7,31.0,78,59,34,30.14,30.03,14,5,22,0.00
2013-5-11,65.6,56.7,49.0,42.0,37.4,33.0,73,50,32,30.21,30.04,19,8,24,0.00
2013-5-12,77.2,64.4,50.1,39.0,33.5,27.0,64,36,16,30.07,29.84,18,7,22,0.00
2013-5-13,84.6,69.9,55.6,39.0,34.2,28.0,46,29,13,29.90,29.74,22,7,28,0.00
2013-5-14,83.0,70.9,58.0,41.0,36.8,31.0,46,30,15,29.73,29.55,29,10,37,0.00
2013-5-15,79.4,68.3,59.3,43.0,40.4,36.0,51,37,22,29.62,29.52,25,8,25,0.00
2013-5-16,82.7,69.7,54.0,43.0,34.5,22.0,62,33,12,29.60,29.43,14,6,23,0.00
2013-5-17,84.6,71.5,55.6,43.0,20.0,-14.0,56,22,2,29.57,29.40,17,7,28,0.00
2013-5-18,74.2,66.3,58.3,33.0,21.7,6.0,34,19,9,29.54,29.40,26,9,33,0.00
2013-5-19,70.7,60.9,49.8,30.0,25.1,16.0,44,27,13,29.61,29.44,23,10,31,0.00
2013-5-20,66.9,55.7,47.3,42.0,31.8,25.0,74,43,24,29.81,29.60,22,6,28,0.00
2013-5-21,72.4,57.9,44.4,40.0,32.8,22.0,77,44,15,29.86,29.62,21,5,27,0.00
2013-5-22,77.4,62.0,42.7,36.0,32.4,28.0,67,37,17,29.75,29.56,16,5,24,0.00
2013-5-23,64.3,57.3,51.5,45.0,43.1,37.0,73,60,37,29.84,29.74,16,7,26,0.00
2013-5-24,86.8,70.0,51.6,49.0,29.0,2.0,80,36,4,29.84,29.56,26,6,33,0.00
2013-5-25,87.0,73.3,52.8,25.0,9.5,-26.0,28,11,1,29.66,29.47,18,7,29,0.00
2013-5-26,87.4,76.2,61.8,23.0,9.0,-12.0,19,9,2,29.55,29.36,27,9,33,0.00
2013-5-27,84.4,73.2,59.1,29.0,14.2,-1.0,23,12,4,29.48,29.29,24,8,33,0.00
2013-5-28,80.5,69.5,52.0,46.0,28.9,-11.0,61,28,3,29.47,29.19,20,6,23,0.00
2013-5-29,75.6,67.5,58.7,34.0,20.8,10.0,38,18,9,29.40,29.15,24,10,37,0.00
2013-5-30,74.7,64.6,50.3,28.0,16.9,1.0,37,19,6,29.54,29.38,40,18,50,0.00
2013-5-31,74.9,64.3,47.6,26.0,12.6,-6.0,40,16,4,29.74,29.52,30,12,49,0.00
2013-6-1,71.5,61.5,47.6,33.0,25.3,9.0,50,27,13,29.94,29.74,23,8,26,0.00
2013-6-2,84.8,66.6,47.0,36.0,30.5,21.0,57,31,10,29.95,29.53,14,5,22,0.00
2013-6-3,89.1,75.3,59.7,33.0,25.5,18.0,28,17,8,29.54,29.32,32,10,40,0.00
2013-6-4,83.4,71.8,58.4,49.0,33.0,22.0,55,26,13,29.67,29.48,31,9,36,0.00
2013-6-5,63.9,55.4,52.0,50.0,45.7,43.0,82,70,58,29.97,29.67,24,10,31,0.00
2013-6-6,78.3,63.2,43.9,49.0,42.3,34.0,94,54,20,29.97,29.76,25,5,28,0.02
2013-6-7,79.3,67.4,57.2,47.0,40.0,35.0,61,39,21,29.83,29.54,38,5,43,0.00
2013-6-8,85.2,71.6,57.3,45.0,39.2,32.0,51,32,15,29.68,29.43,23,8,29,0.00
2013-6-9,88.2,72.6,51.8,43.0,33.9,27.0,62,30,12,29.72,29.57,21,7,26,0.00
2013-6-10,99.1,83.4,64.0,33.0,25.3,11.0,29,14,4,29.65,29.39,23,8,28,0.00
2013-6-11,96.9,84.7,70.9,34.0,8.7,-99.9,24,10,1,29.50,29.29,34,11,44,0.00
2013-6-12,93.7,80.1,62.8,33.0,22.9,15.0,22,13,7,29.70,29.50,27,9,35,0.00
2013-6-13,90.8,76.5,63.6,49.0,39.7,27.0,46,28,12,29.68,29.48,28,8,37,0.00
2013-6-14,91.9,78.1,65.7,45.0,38.7,30.0,44,26,11,29.61,29.41,32,9,43,0.00
2013-6-15,88.3,74.1,60.0,44.0,38.9,26.0,52,32,11,29.71,29.54,20,6,31,0.00
2013-6-16,86.3,70.4,56.3,47.0,41.2,30.0,55,37,14,29.78,29.61,29,6,29,0.00
2013-6-17,84.7,72.0,59.9,49.0,40.3,36.0,58,34,18,29.82,29.65,31,8,31,0.00
2013-6-18,82.7,70.8,59.2,51.0,44.6,31.0,72,43,16,29.83,29.50,34,10,45,0.02
2013-6-19,94.1,73.7,51.3,50.0,26.0,-99.9,79,37,1,29.67,29.35,27,7,34,0.00
2013-6-20,92.3,79.5,62.5,16.0,0.7,-24.0,15,6,1,29.50,29.35,24,7,30,0.00
2013-6-21,93.2,80.3,60.5,21.0,7.8,-8.0,16,7,2,29.50,29.34,28,9,30,0.00
2013-6-22,92.1,78.2,59.3,32.0,17.2,-1.0,27,12,3,29.52,29.31,27,7,32,0.00
2013-6-23,86.1,74.5,57.7,47.0,35.1,11.0,39,26,8,29.61,29.39,26,8,32,0.00
2013-6-24,91.4,75.1,60.8,49.0,29.9,-11.0,59,31,2,29.60,29.37,24,8,33,0.00
2013-6-25,93.9,81.3,65.3,31.0,20.1,4.0,17,11,5,29.57,29.40,23,8,38,0.00
2013-6-26,94.8,81.3,63.0,42.0,32.9,29.0,31,18,11,29.68,29.54,17,5,27,0.00
2013-6-27,99.3,85.1,70.6,45.0,34.4,27.0,29,18,8,29.79,29.61,16,6,31,0.00
2013-6-28,96.4,82.0,72.1,50.0,44.2,31.0,45,28,11,29.82,29.61,30,8,45,0.00
2013-6-29,81.8,72.4,64.3,56.0,49.2,44.0,66,45,29,29.84,29.70,31,6,37,0.05
2013-6-30,76.6,66.2,58.7,58.0,51.8,47.0,81,61,40,29.94,29.79,21,4,26,0.03
2013-7-1,74.2,64.1,55.1,58.0,53.0,49.0,86,69,44,30.02,29.93,16,4,22,0.01
2013-7-2,81.3,67.3,55.2,54.0,48.4,42.0,83,55,27,30.01,29.82,24,5,30,0.00
2013-7-3,84.6,70.3,59.8,50.0,45.7,40.0,64,44,21,29.86,29.56,25,9,34,0.01
2013-7-4,90.1,77.1,62.6,48.0,42.3,36.0,53,32,15,29.64,29.52,15,7,39,0.00
2013-7-5,93.0,77.5,68.0,59.0,47.3,42.0,71,37,17,29.53,29.36,20,7,28,0.00
2013-7-6,93.2,76.0,67.3,57.0,50.7,39.0,68,44,15,29.64,29.46,22,11,31,0.01
2013-7-7,91.3,76.2,65.7,57.0,51.2,45.0,68,45,21,29.70,29.55,19,6,21,0.01
2013-7-8,96.0,78.4,64.7,55.0,48.0,31.0,70,40,10,29.73,29.57,19,9,27,0.00
2013-7-9,95.8,82.5,70.9,51.0,42.2,33.0,42,25,11,29.74,29.64,24,8,28,0.00
2013-7-10,88.9,77.4,65.3,57.0,51.1,45.0,72,42,25,29.79,29.61,22,7,33,0.01
2013-7-11,93.4,77.1,58.8,57.0,52.7,43.0,85,49,20,29.80,29.50,22,5,37,0.00
2013-7-12,95.3,83.3,76.5,53.0,48.2,41.0,42,31,16,29.55,29.39,21,10,32,0.00
2013-7-13,92.8,79.2,67.9,56.0,52.6,45.0,56,41,20,29.68,29.52,24,6,32,0.00
2013-7-14,87.2,73.4,62.9,60.0,54.9,50.0,88,55,28,29.84,29.66,24,8,32,0.15
2013-7-15,70.1,64.2,60.7,61.0,58.1,50.0,93,81,59,29.93,29.79,13,4,17,0.38
2013-7-16,77.4,66.6,55.2,55.0,50.2,45.0,83,59,32,29.98,29.87,18,5,29,0.00
2013-7-17,84.6,70.9,56.5,57.0,52.3,45.0,86,56,25,29.98,29.80,16,5,20,0.00
2013-7-18,91.9,74.6,62.0,58.0,53.0,50.0,77,51,25,29.84,29.57,34,8,39,0.09
2013-7-19,84.7,72.5,62.7,58.0,53.6,49.0,74,54,30,29.78,29.67,20,6,25,0.00
2013-7-20,87.0,74.2,59.9,57.0,54.0,49.0,85,53,27,29.77,29.53,17,6,28,0.00
2013-7-21,94.8,78.4,63.6,59.0,48.4,21.0,79,42,7,29.69,29.45,24,8,29,0.00
2013-7-22,95.2,80.6,70.3,47.0,42.4,32.0,40,28,11,29.57,29.48,18,8,34,0.00
2013-7-23,97.2,82.0,68.5,49.0,38.4,15.0,40,25,5,29.69,29.52,27,9,27,0.00
2013-7-24,78.7,71.6,63.8,63.0,57.3,49.0,82,62,36,29.82,29.69,15,6,22,0.00
2013-7-25,83.8,68.5,58.9,61.0,54.8,48.0,85,64,29,29.93,29.72,21,5,27,0.32
2013-7-26,81.9,70.8,58.4,55.0,51.8,46.0,82,54,32,29.96,29.83,16,5,24,0.00
2013-7-27,93.0,73.7,62.7,56.0,49.3,33.0,75,47,12,29.87,29.52,26,9,39,0.03
2013-7-28,75.9,66.7,59.8,60.0,57.8,55.0,92,75,49,29.72,29.58,17,5,21,0.02
2013-7-29,85.4,71.4,61.5,60.0,54.4,44.0,88,60,24,29.84,29.63,33,6,38,0.04
2013-7-30,90.9,75.1,59.8,55.0,46.9,38.0,81,43,16,29.88,29.77,19,6,23,0.00
2013-7-31,90.6,77.0,64.8,56.0,48.2,41.0,60,39,19,29.89,29.70,22,8,29,0.00
2013-8-1,89.3,74.3,60.5,57.0,53.4,45.0,83,52,22,29.82,29.61,27,7,40,0.00
2013-8-2,92.1,78.2,67.0,56.0,48.2,38.0,68,38,16,29.69,29.52,21,9,28,0.01
2013-8-3,87.0,72.2,61.6,59.0,54.2,50.0,80,55,30,29.91,29.65,32,6,42,0.01
2013-8-4,87.5,74.0,63.8,60.0,54.9,44.0,82,55,23,29.89,29.68,18,9,24,0.00
2013-8-5,89.3,75.5,65.9,58.0,51.4,44.0,75,46,21,29.80,29.62,26,10,38,0.01
2013-8-6,89.0,74.1,65.4,57.0,49.7,39.0,73,46,18,29.72,29.56,38,10,38,0.03
2013-8-7,69.3,65.6,57.7,59.0,53.8,50.0,90,67,53,29.77,29.66,14,5,17,0.00
2013-8-8,73.0,62.1,55.5,58.0,53.7,48.0,92,75,53,29.95,29.73,26,3,33,0.14
2013-8-9,75.6,62.7,53.8,57.0,50.5,46.0,86,67,37,30.01,29.88,21,5,22,0.53
2013-8-10,82.3,65.1,53.1,59.0,52.9,44.0,92,67,31,30.01,29.79,23,5,43,0.01
2013-8-11,83.0,70.2,59.6,57.0,47.7,43.0,76,47,27,29.92,29.74,18,7,27,0.03
2013-8-12,78.4,67.4,61.6,56.0,50.5,44.0,81,57,33,29.92,29.76,17,6,19,0.00
2013-8-13,79.3,67.6,59.9,58.0,53.0,48.0,82,62,36,29.92,29.80,20,6,31,0.26
2013-8-14,78.4,67.2,58.8,58.0,53.0,46.0,86,62,38,29.90,29.79,13,6,18,0.01
2013-8-15,89.7,72.4,59.0,55.0,47.0,30.0,73,45,13,29.88,29.71,19,6,25,0.00
2013-8-16,87.3,74.5,62.6,50.0,45.5,38.0,62,38,18,29.81,29.73,19,6,19,0.00
2013-8-17,93.3,78.5,64.0,54.0,40.5,22.0,50,29,8,29.80,29.61,17,7,23,0.00
2013-8-18,90.0,76.6,65.9,56.0,48.2,40.0,59,39,18,29.75,29.59,24,7,32,0.02
2013-8-19,90.3,78.0,64.9,48.0,44.4,39.0,50,33,18,29.77,29.62,16,7,19,0.00
2013-8-20,93.1,80.4,67.7,48.0,39.3,26.0,45,26,9,29.68,29.54,18,7,26,0.00
2013-8-21,91.7,79.8,71.1,49.0,43.5,36.0,36,28,17,29.68,29.58,20,7,28,0.00
2013-8-22,86.5,76.1,64.9,60.0,50.7,45.0,82,43,28,29.82,29.60,26,7,32,0.04
2013-8-23,88.7,74.4,62.8,60.0,52.1,39.0,86,50,18,29.82,29.53,15,5,21,0.01
2013-8-24,87.0,76.6,65.9,52.0,47.0,43.0,47,36,24,29.68,29.58,15,7,26,0.00
2013-8-25,87.4,77.1,67.9,55.0,50.8,48.0,53,41,27,29.76,29.66,15,8,25,0.00
2013-8-26,91.6,80.2,68.3,53.0,50.3,48.0,55,37,23,29.76,29.59,17,7,22,0.00
2013-8-27,90.8,79.3,69.6,53.0,49.7,43.0,51,37,19,29.70,29.59,16,5,20,0.00
2013-8-28,91.2,78.8,66.5,50.0,43.7,30.0,50,31,11,29.70,29.61,13,5,18,0.00
2013-8-29,93.4,81.2,69.8,48.0,43.4,37.0,41,28,14,29.74,29.64,15,8,21,0.00
2013-8-30,93.7,82.2,72.2,49.0,45.4,38.0,42,29,14,29.73,29.59,16,8,22,0.00
2013-8-31,87.9,74.5,66.2,60.0,50.8,45.0,80,46,22,29.70,29.55,18,6,33,0.09
2013-9-1,78.7,71.6,64.1,60.0,57.6,55.0,83,62,46,29.83,29.69,20,5,24,0.00
2013-9-2,87.5,74.0,61.7,58.0,54.7,48.0,81,54,28,29.80,29.66,14,6,21,0.00
2013-9-3,91.9,78.8,68.8,55.0,50.8,46.0,52,39,21,29.73,29.61,22,8,27,0.00
2013-9-4,93.3,79.2,70.2,58.0,50.6,45.0,64,39,20,29.76,29.67,22,8,36,0.29
2013-9-5,93.0,79.4,66.2,55.0,47.0,37.0,61,36,15,29.80,29.68,22,7,24,0.00
2013-9-6,92.6,79.4,67.0,47.0,40.9,31.0,44,28,11,29.76,29.60,15,5,25,0.00
2013-9-7,91.0,78.6,66.7,46.0,41.5,35.0,42,28,14,29.69,29.56,12,5,19,0.00
2013-9-8,90.3,78.0,65.0,46.0,42.6,38.0,43,30,17,29.63,29.41,16,5,22,0.00
2013-9-9,87.2,77.3,67.9,54.0,45.3,39.0,61,34,19,29.56,29.38,18,8,25,0.04
2013-9-10,76.8,68.2,63.9,55.0,53.6,50.0,70,60,39,29.82,29.57,23,7,27,0.00
2013-9-11,66.7,62.9,60.7,61.0,59.2,55.0,94,88,71,29.90,29.80,12,3,15,1.10
2013-9-12,70.7,63.3,57.8,61.0,59.0,56.0,95,86,65,29.97,29.84,13,4,17,0.93
2013-9-13,72.7,64.3,60.1,60.0,58.3,55.0,95,82,57,29.86,29.62,13,3,13,0.06
2013-9-14,76.9,65.9,57.2,56.0,53.0,50.0,89,65,41,29.69,29.53,17,5,23,0.00
2013-9-15,68.1,60.4,54.7,57.0,53.2,49.0,94,78,60,30.01,29.66,17,4,19,0.78
2013-9-16,67.3,60.0,53.8,60.0,55.5,52.0,96,85,70,30.02,29.85,13,4,15,0.06
2013-9-17,83.0,69.6,58.6,58.0,51.1,37.0,92,57,20,29.87,29.52,16,6,23,0.00
2013-9-18,82.3,70.0,61.2,52.0,48.4,42.0,70,48,24,29.61,29.45,25,9,37,0.02
2013-9-19,71.3,65.6,59.6,48.0,44.5,36.0,64,48,31,29.89,29.58,22,10,26,0.00
2013-9-20,71.7,61.5,53.5,51.0,49.8,47.0,87,67,45,29.91,29.75,14,4,16,0.00
2013-9-21,84.0,69.1,54.8,50.0,44.2,34.0,79,46,17,29.82,29.50,15,4,19,0.00
2013-9-22,75.5,64.4,58.1,52.0,45.9,40.0,72,52,35,29.49,29.24,29,8,43,0.06
2013-9-23,70.0,62.2,53.3,41.0,32.2,23.0,60,35,17,29.83,29.28,30,14,39,0.00
2013-9-24,74.3,61.8,49.5,39.0,31.6,23.0,50,34,17,29.90,29.66,18,6,21,0.00
2013-9-25,84.3,69.7,53.9,40.0,30.2,18.0,55,26,9,29.65,29.24,18,5,23,0.00
2013-9-26,83.3,71.5,58.0,31.0,24.0,13.0,32,18,7,29.34,29.24,15,6,22,0.00
2013-9-27,75.0,63.6,50.5,40.0,31.3,19.0,48,30,22,29.74,29.31,28,8,39,0.00
2013-9-28,71.4,55.7,41.1,25.0,21.0,16.0,46,28,13,29.96,29.73,19,6,24,0.00
2013-9-29,78.7,64.6,47.8,26.0,19.8,11.0,39,21,8,29.96,29.63,22,11,32,0.00
2013-9-30,85.6,72.2,59.8,32.0,26.8,18.0,27,19,13,29.67,29.42,20,9,25,0.00
2013-10-1,76.0,66.4,54.8,35.0,30.1,22.0,48,27,18,29.71,29.53,16,7,25,0.00
2013-10-2,80.8,66.4,55.4,35.0,24.6,2.0,46,25,5,29.69,29.53,17,7,21,0.00
2013-10-3,76.0,65.3,54.5,44.0,29.5,23.0,65,27,15,29.53,29.32,13,4,19,0.00
2013-10-4,59.3,51.1,38.6,47.0,22.3,-6.0,85,41,7,30.00,29.37,31,12,38,0.00
2013-10-5,62.5,47.9,31.4,25.0,14.0,3.0,64,30,9,30.12,29.99,22,6,22,0.00
2013-10-6,68.4,55.3,44.5,22.0,13.4,5.0,36,20,11,30.12,30.01,14,5,18,0.00
2013-10-7,78.3,60.7,46.7,27.0,22.1,17.0,36,24,12,30.07,29.71,14,4,17,0.00
2013-10-8,80.0,67.3,56.8,26.0,21.5,14.0,30,18,9,29.70,29.42,23,8,28,0.00
2013-10-9,74.4,62.4,45.7,37.0,28.4,23.0,46,29,18,29.63,29.48,14,4,17,0.00
2013-10-10,65.4,52.4,44.7,40.0,35.1,24.0,73,53,29,29.64,29.31,33,8,48,0.00
2013-10-11,66.5,55.5,48.5,39.0,27.6,21.0,70,36,21,29.88,29.48,27,14,39,0.00
2013-10-12,61.9,49.6,40.6,40.0,35.8,31.0,85,62,34,30.03,29.88,9,2,17,0.00
2013-10-13,62.7,47.5,33.5,46.0,33.2,28.0,84,60,37,30.08,29.79,10,2,13,0.03
2013-10-14,63.9,53.5,41.6,47.0,30.5,18.0,91,49,17,29.95,29.64,35,11,39,0.00
2013-10-15,42.4,39.6,34.9,35.0,28.8,24.0,89,66,51,30.19,29.95,17,6,23,0.01
2013-10-16,50.5,39.8,31.9,37.0,33.1,29.0,94,78,51,30.18,29.97,12,3,15,0.04
2013-10-17,55.4,44.9,35.3,29.0,24.1,16.0,66,46,27,30.05,29.84,11,5,15,0.00
2013-10-18,43.3,37.8,32.2,32.0,28.8,27.0,87,71,55,30.17,29.93,15,5,18,0.02
2013-10-19,68.2,50.1,31.5,27.0,19.3,15.0,77,34,13,30.15,29.80,18,6,20,0.00
2013-10-20,59.0,50.2,39.4,37.0,24.5,16.0,84,40,21,30.00,29.71,19,10,24,0.02
2013-10-21,57.3,45.2,35.5,36.0,30.3,22.0,88,60,28,30.11,29.99,15,4,19,0.02
2013-10-22,65.2,51.6,39.9,28.0,25.5,22.0,60,39,21,30.12,29.98,19,6,24,0.00
2013-10-23,70.3,55.4,43.9,27.0,24.3,20.0,48,33,15,30.02,29.88,15,6,20,0.00
2013-10-24,54.8,46.0,36.1,34.0,30.6,26.0,75,56,44,30.17,30.01,12,3,14,0.00
2013-10-25,63.2,48.0,30.7,36.0,31.6,27.0,87,57,31,30.17,29.98,10,2,11,0.00
2013-10-26,61.6,53.3,44.9,36.0,31.5,29.0,55,44,33,30.17,30.01,14,4,22,0.00
2013-10-27,69.1,56.6,45.6,31.0,26.7,20.0,56,34,16,30.00,29.63,19,9,25,0.00
2013-10-28,57.3,48.7,35.2,33.0,28.2,25.0,78,47,31,29.89,29.62,18,7,27,0.00
2013-10-29,54.5,40.7,28.6,34.0,29.2,24.0,87,66,39,29.93,29.79,13,3,16,0.00
2013-10-30,58.1,45.0,32.8,34.0,24.6,14.0,92,51,18,29.84,29.63,20,7,25,0.00
2013-10-31,58.7,47.0,36.2,20.0,16.5,13.0,46,31,17,29.82,29.65,26,12,32,0.00
2013-11-1,55.5,45.9,34.9,27.0,22.7,17.0,65,41,24,30.16,29.82,16,6,23,0.00
2013-11-2,63.1,46.6,29.3,25.0,20.4,15.0,65,39,17,30.16,29.72,10,3,13,0.00
2013-11-3,67.4,57.0,44.0,21.0,18.0,14.0,35,22,15,29.71,29.35,27,11,34,0.00
2013-11-4,48.6,38.2,31.1,28.0,22.8,17.0,80,56,29,29.91,29.54,11,4,17,0.00
2013-11-5,37.7,33.8,28.2,32.0,27.9,16.0,92,79,57,30.21,29.83,20,6,25,0.02
2013-11-6,56.4,41.5,26.7,17.0,11.4,6.0,62,32,17,30.34,30.19,22,8,28,0.00
2013-11-7,58.4,42.2,24.4,19.0,17.0,14.0,67,39,20,30.38,30.02,11,3,14,0.00
2013-11-8,68.6,55.9,31.6,19.0,13.6,9.0,56,22,10,30.01,29.69,30,11,42,0.00
2013-11-9,60.9,47.7,36.3,25.0,20.7,15.0,50,35,22,30.12,29.84,12,3,14,0.00
2013-11-10,63.4,46.6,31.4,27.0,23.9,21.0,67,44,21,30.19,30.03,14,3,15,0.00
2013-11-11,67.4,49.3,30.1,30.0,19.0,10.0,83,37,11,30.51,30.06,24,9,28,0.00
2013-11-12,56.3,40.6,28.6,28.0,26.7,24.0,92,61,33,30.59,30.39,14,4,20,0.00
2013-11-13,67.9,54.4,39.7,24.0,16.0,8.0,51,25,10,30.38,29.82,16,9,20,0.00
2013-11-14,58.7,50.9,38.3,31.0,23.8,14.0,65,37,22,29.82,29.65,20,7,26,0.00
2013-11-15,61.8,50.6,34.1,36.0,22.9,15.0,69,38,17,29.64,29.34,23,10,33,0.00
2013-11-16,58.0,50.4,41.3,35.0,23.1,13.0,75,38,18,29.39,29.19,28,12,49,0.01
2013-11-17,60.7,45.5,31.5,33.0,20.7,15.0,73,42,17,30.06,29.39,25,7,33,0.00
2013-11-18,58.9,40.4,25.8,19.0,16.9,14.0,66,42,18,30.12,29.99,10,4,14,0.00
2013-11-19,64.0,50.0,32.8,23.0,17.3,14.0,46,29,15,30.00,29.60,26,10,32,0.00
2013-11-20,60.7,49.3,38.8,25.0,22.4,21.0,52,36,23,29.71,29.56,13,4,18,0.00
2013-11-21,46.1,27.5,17.1,34.0,21.9,13.0,91,81,43,30.65,29.72,22,9,28,0.01
2013-11-22,28.1,23.4,17.0,25.0,20.9,14.0,93,90,86,30.74,30.64,4,0,5,0.06
2013-11-23,30.2,26.8,24.4,27.0,22.4,16.0,93,84,59,30.73,30.51,4,1,7,0.02
2013-11-24,33.4,26.9,22.6,32.0,24.3,21.0,94,89,81,30.50,30.02,7,1,11,0.01
2013-11-25,37.1,33.9,31.0,32.0,29.5,26.0,94,84,65,30.33,30.02,23,3,23,0.13
2013-11-26,43.6,35.2,28.7,29.0,24.5,21.0,77,66,46,30.46,30.31,10,3,13,0.07
2013-11-27,56.1,40.8,30.8,31.0,23.2,19.0,68,51,26,30.30,30.02,16,6,20,0.00
2013-11-28,42.0,35.8,27.2,29.0,24.1,20.0,85,63,51,30.22,30.06,10,3,14,0.00
2013-11-29,58.9,44.6,24.1,24.0,17.8,12.0,91,40,16,30.19,30.07,21,10,28,0.00
2013-11-30,58.0,47.5,38.5,18.0,15.5,11.0,43,29,16,30.12,29.97,23,9,24,0.00
2013-12-1,57.2,48.4,35.7,21.0,15.7,13.0,43,28,18,30.04,29.78,23,13,29,0.00
2013-12-2,61.5,52.1,40.5,25.0,19.7,15.0,49,29,19,29.79,29.41,40,13,44,0.00
2013-12-3,57.3,46.6,23.9,24.0,18.8,16.0,74,36,22,29.50,29.23,25,10,32,0.00
2013-12-4,23.7,12.6,2.0,16.0,8.0,-3.0,87,82,66,30.31,29.51,18,9,22,0.00
2013-12-5,9.0,3.6,-4.1,3.0,-1.3,-9.0,84,80,74,30.45,30.30,7,2,8,0.00
2013-12-6,9.9,3.2,-5.5,1.0,-3.2,-11.0,82,75,62,30.60,30.43,6,2,8,0.00
2013-12-7,12.2,6.0,2.4,3.0,-0.3,-4.0,84,75,60,30.59,30.05,5,2,8,0.00
2013-12-8,21.3,9.7,0.8,10.0,3.8,-3.0,85,77,61,30.32,29.97,11,4,14,0.00
2013-12-9,28.7,16.7,1.7,6.0,-1.9,-7.0,81,50,23,30.39,30.26,30,10,40,0.00
2013-12-10,46.7,35.2,21.9,16.0,5.0,-7.0,58,29,21,30.38,29.97,33,15,42,0.00
2013-12-11,35.5,26.7,17.1,19.0,14.3,10.0,75,61,35,30.46,30.25,10,2,16,0.00
2013-12-12,60.6,43.4,31.6,11.0,7.4,-1.0,41,24,8,30.43,29.84,18,10,25,0.00
2013-12-13,53.3,42.0,31.4,18.0,11.8,5.0,54,31,15,30.03,29.69,17,8,23,0.00
2013-12-14,45.3,35.2,23.7,19.0,14.1,9.0,70,45,24,30.30,30.05,23,4,26,0.00
2013-12-15,59.9,47.1,36.3,18.0,14.6,12.0,40,28,17,30.21,30.03,29,11,34,0.00
2013-12-16,63.5,49.6,38.6,17.0,13.8,11.0,36,25,13,30.12,29.98,16,8,22,0.00
2013-12-17,62.7,47.7,38.4,19.0,14.5,11.0,40,27,15,30.20,30.00,22,8,27,0.00
2013-12-18,66.7,53.2,42.7,16.0,10.3,2.0,30,20,8,30.00,29.55,21,7,25,0.00
2013-12-19,60.1,46.3,27.4,23.0,18.4,13.0,78,36,16,29.69,29.33,25,6,35,0.00
2013-12-20,30.3,25.8,21.9,24.0,21.5,19.0,91,83,75,29.79,29.64,10,2,13,0.00
2013-12-21,39.6,28.2,20.6,24.0,20.4,17.0,89,75,47,29.94,29.58,14,4,19,0.00
2013-12-22,42.5,30.8,18.2,22.0,11.6,4.0,86,51,20,30.18,29.95,19,5,27,0.00
2013-12-23,42.3,29.5,18.6,21.0,15.9,8.0,82,59,37,30.39,30.18,13,3,17,0.00
2013-12-24,55.9,44.8,30.9,24.0,16.1,6.0,45,32,22,30.25,29.91,34,15,37,0.00
2013-12-25,42.7,31.7,24.3,8.0,4.2,-1.0,47,33,16,30.39,30.20,12,4,14,0.00
2013-12-26,54.8,41.8,32.7,9.0,5.6,1.0,35,23,14,30.30,30.20,19,8,23,0.00
2013-12-27,59.6,42.4,32.5,18.0,15.1,9.0,46,35,16,30.26,30.02,17,6,20,0.00
2013-12-28,61.2,44.7,28.4,26.0,18.9,16.0,90,39,18,30.01,29.67,32,12,36,0.00
2013-12-29,33.4,25.9,21.7,26.0,21.4,15.0,92,83,47,30.21,30.01,18,4,21,0.01
2013-12-30,45.5,36.9,29.9,21.0,16.8,12.0,68,45,34,30.28,30.07,12,4,18,0.00
2013-12-31,56.9,44.7,33.0,21.0,17.4,12.0,50,34,24,30.12,29.85,18,7,22,0.00
2014-1-1,48.3,39.8,27.8,26.0,18.0,6.0,73,46,18,30.27,29.77,28,12,34,0.00
2014-1-2,42.4,30.3,17.9,24.0,19.2,14.0,87,65,40,30.28,30.12,11,4,13,0.00